Location: Bothell
(47.7630°N, 122.2040°W)
Time: 06:10:23
(UTC-07:00)

Amateur Radio Satellites - All Passes

Search period start: 26 July 2014 05:40
Search period end: 27 July 2014 05:40
Location: Bothell, 47.7630°N, 122.2040°W

Satellite Date Start Highest point End Downlink Frequencies (MHz)
Time Altitude Azimuth
Uosat F 26 Jul 05:40:40 05:45:44 86° 105° (ESE) 05:50:45 435.120 FM
AO-27 26 Jul 05:47:54 05:48:24 10° 310° (NW) 05:48:53 436.795 MHz FM
Gurwin Techsat 1B 26 Jul 05:49:55 05:53:39 20° 302° (WNW) 05:57:22 435.225 FM
STRAND 1 26 Jul 06:09:26 06:14:07 36° 65° (ENE) 06:18:48 ?
MaSat-1 26 Jul 06:12:20 06:16:42 25° 44° (NE) 06:21:02 437.345 MHz
ISS 26 Jul 06:17:33 06:20:57 81° 22° (NNE) 06:24:19 145.800 FM
AO-7 26 Jul 06:38:07 06:46:21 65° 296° (WNW) 06:54:31 29.400 - 29.500 MHz
JAS-2 26 Jul 06:47:11 06:52:43 32° 92° (E) 06:57:41 435.800 - 435.900 CW/SSB, 435.910 FM
JAS-1B 26 Jul 06:52:44 06:58:49 19° 319° (NW) 07:04:37 435.800 - 435.900 CW/SSB
Hamsat 26 Jul 06:54:04 06:58:12 45° 98° (E) 07:02:20 145.90 MHz
KITSAT 1 26 Jul 07:20:00 07:27:54 60° 117° (ESE) 07:35:49 435.175 FM
Uosat F 26 Jul 07:20:52 07:23:51 16° 304° (NW) 07:26:50 435.120 FM
Saudisat 1A 26 Jul 07:47:34 07:49:24 12° 109° (ESE) 07:51:15 436.775 MHz
STRAND 1 26 Jul 07:48:39 07:53:19 34° 264° (W) 07:58:01 ?
MaSat-1 26 Jul 07:49:17 07:54:37 72° 244° (WSW) 07:59:45 437.345 MHz
SO-67 26 Jul 07:52:24 07:55:30 29° 96° (E) 07:58:35 435.3500 MHz FM
ISS 26 Jul 07:54:43 07:57:22 22° 221° (SW) 08:00:01 145.800 FM
Sapphire 26 Jul 07:58:16 08:00:37 13° 20° (NNE) 08:02:58 437.095 MHz 1200 baud AX-25 AFSK
Hamsat 26 Jul 08:30:40 08:33:55 21° 296° (WNW) 08:37:10 145.90 MHz
PCSat 26 Jul 08:31:38 08:35:12 17° 29° (NNE) 08:38:45 145.825 MHz
JAS-2 26 Jul 08:32:04 08:38:02 45° 295° (WNW) 08:43:21 435.800 - 435.900 CW/SSB, 435.910 FM
AO-7 26 Jul 08:32:11 08:37:39 20° 318° (NW) 08:43:07 29.400 - 29.500 MHz
HO-68 26 Jul 08:48:28 08:52:44 16° 86° (E) 08:56:58 435.675 MHz FM
KITSAT 1 26 Jul 09:15:57 09:23:38 45° 320° (NW) 09:31:21 435.175 FM
Saudisat 1A 26 Jul 09:23:53 09:28:18 89° 127° (SE) 09:32:46 436.775 MHz
SO-67 26 Jul 09:25:48 09:28:26 21° 293° (WNW) 09:31:05 435.3500 MHz FM
MaSat-1 26 Jul 09:29:20 09:31:01 12° 262° (W) 09:32:40 437.345 MHz
Sapphire 26 Jul 09:40:44 09:45:44 35° 44° (NE) 09:50:41 437.095 MHz 1200 baud AX-25 AFSK
Oscar 11 26 Jul 09:45:18 09:47:16 13° 88° (E) 09:49:13 145.825 FM, Beacon 2401.500 USB
PCSat 26 Jul 10:14:22 10:19:46 60° 52° (NE) 10:25:08 145.825 MHz
UKube-1 26 Jul 10:31:13 10:35:35 66° 102° (ESE) 10:39:54 145.840 MHz, 145.915 MHz
HO-68 26 Jul 10:34:21 10:41:33 81° 106° (ESE) 10:48:42 435.675 MHz FM
Saudisat 1A 26 Jul 11:05:11 11:08:30 20° 328° (NNW) 11:11:49 436.775 MHz
KITSAT 1 26 Jul 11:15:18 11:21:24 22° 348° (NNW) 11:27:30 435.175 FM
Oscar 11 26 Jul 11:19:38 11:23:58 73° 286° (WNW) 11:28:17 145.825 FM, Beacon 2401.500 USB
Sapphire 26 Jul 11:24:07 11:29:20 48° 244° (WSW) 11:34:30 437.095 MHz 1200 baud AX-25 AFSK
FUNcube-1 26 Jul 11:33:00 11:37:08 60° 101° (E) 11:41:16 145.950 - 145.970 MHz USB
PCSat 26 Jul 11:58:27 12:02:48 25° 251° (WSW) 12:07:08 145.825 MHz
UKube-1 26 Jul 12:08:37 12:11:19 16° 301° (WNW) 12:14:00 145.840 MHz, 145.915 MHz
JAS-1B 26 Jul 12:12:00 12:17:25 17° 38° (NE) 12:22:59 435.800 - 435.900 CW/SSB
HO-68 26 Jul 12:22:57 12:28:34 26° 307° (NW) 12:34:10 435.675 MHz FM
Oscar 19 26 Jul 12:46:39 12:50:58 29° 63° (ENE) 12:55:19 437.125 CW, 437.150 USB
FUNcube-1 26 Jul 13:10:36 13:13:07 16° 299° (WNW) 13:15:39 145.950 - 145.970 MHz USB
KITSAT 1 26 Jul 13:13:36 13:19:59 25° 18° (NNE) 13:26:21 435.175 FM
Oscar 16 26 Jul 13:13:48 13:18:42 49° 69° (ENE) 13:23:39 437.025 USB, Beacon 2401.1428
AO-Echo 26 Jul 13:24:35 13:29:13 32° 64° (ENE) 13:33:52 ?
ITAMSAT 1 26 Jul 13:29:13 13:33:52 33° 64° (ENE) 13:38:30 435.822 SSB
SO-50 26 Jul 13:30:25 13:34:30 36° 118° (ESE) 13:38:41 436.795 FM
TMSAT-1 26 Jul 13:34:32 13:37:08 14° 54° (NE) 13:39:43 436.925 FM
AO-27 26 Jul 13:47:15 13:52:14 47° 68° (ENE) 13:57:14 436.795 MHz FM
Uribyol 2 26 Jul 13:48:56 13:53:56 50° 69° (ENE) 13:58:58 436.500 FM
Gurwin Techsat 1B 26 Jul 13:54:59 13:59:16 26° 61° (ENE) 14:03:34 435.225 FM
RS-15 26 Jul 13:55:46 14:06:06 47° 112° (ESE) 14:16:16 29.354 - 29.394 USB, Beacon 29.352 USB
JAS-1B 26 Jul 13:56:59 14:05:32 50° 61° (ENE) 14:14:53 435.800 - 435.900 CW/SSB
AO-7 26 Jul 13:59:44 14:04:57 19° 40° (NE) 14:10:11 29.400 - 29.500 MHz
Oscar 19 26 Jul 14:25:16 14:30:08 44° 262° (W) 14:35:03 437.125 CW, 437.150 USB
Saudisat 1A 26 Jul 14:29:58 14:31:28 11° 17° (NNE) 14:32:58 436.775 MHz
Oscar 16 26 Jul 14:54:09 14:58:19 25° 267° (W) 15:02:30 437.025 USB, Beacon 2401.1428
AO-Echo 26 Jul 15:02:48 15:07:50 43° 262° (W) 15:12:55 ?
ITAMSAT 1 26 Jul 15:08:26 15:13:17 38° 263° (W) 15:18:10 435.822 SSB
KITSAT 1 26 Jul 15:09:25 15:17:22 55° 45° (NE) 15:25:15 435.175 FM
SO-50 26 Jul 15:10:52 15:15:04 37° 319° (NW) 15:19:22 436.795 FM
TMSAT-1 26 Jul 15:10:54 15:16:11 76° 73° (ENE) 15:21:31 436.925 FM
Uosat F 26 Jul 15:19:48 15:23:55 26° 62° (ENE) 15:28:03 435.120 FM
AO-27 26 Jul 15:27:35 15:31:58 27° 266° (W) 15:36:22 436.795 MHz FM
Uribyol 2 26 Jul 15:29:27 15:33:41 25° 267° (W) 15:37:56 436.500 FM
Gurwin Techsat 1B 26 Jul 15:33:44 15:38:56 54° 260° (W) 15:44:09 435.225 FM
UOSAT-12 26 Jul 15:45:53 15:50:24 57° 123° (ESE) 15:55:02 437.025 FM, 437.400 FM
JAS-1B 26 Jul 15:47:19 15:55:54 53° 264° (W) 16:05:30 435.800 - 435.900 CW/SSB
AO-7 26 Jul 15:47:59 15:56:09 61° 63° (ENE) 16:04:20 29.400 - 29.500 MHz
OPAL 26 Jul 15:59:21 16:01:40 13° 90° (E) 16:03:59 ?
RS-15 26 Jul 16:07:13 16:18:10 63° 317° (NW) 16:29:03 29.354 - 29.394 USB, Beacon 29.352 USB
Saudisat 1A 26 Jul 16:08:23 16:12:24 33° 40° (NE) 16:16:23 436.775 MHz
TMSAT-1 26 Jul 16:53:23 16:56:43 17° 272° (W) 17:00:04 436.925 FM
SO-50 26 Jul 16:54:50 16:56:57 13° 342° (NNW) 16:59:05 436.795 FM
Uosat F 26 Jul 16:57:34 17:02:27 49° 260° (W) 17:07:22 435.120 FM
JAS-2 26 Jul 17:01:43 17:08:03 29° 59° (ENE) 17:14:03 435.800 - 435.900 CW/SSB, 435.910 FM
KITSAT 1 26 Jul 17:05:07 17:12:40 45° 247° (WSW) 17:20:11 435.175 FM
UOSAT-12 26 Jul 17:26:50 17:30:53 28° 323° (NW) 17:34:59 437.025 FM, 437.400 FM
OPAL 26 Jul 17:36:09 17:41:14 90° 108° (ESE) 17:46:21 ?
AO-7 26 Jul 17:41:47 17:49:20 37° 264° (W) 17:56:56 29.400 - 29.500 MHz
JAS-1B 26 Jul 17:45:51 17:48:56 12° 287° (WNW) 17:52:07 435.800 - 435.900 CW/SSB
Saudisat 1A 26 Jul 17:47:56 17:52:06 41° 240° (WSW) 17:56:13 436.775 MHz
Hamsat 26 Jul 17:50:43 17:54:45 48° 71° (ENE) 17:58:48 145.90 MHz
RS-15 26 Jul 18:23:25 18:33:05 34° 349° (NNW) 18:42:50 29.354 - 29.394 USB, Beacon 29.352 USB
SO-67 26 Jul 18:29:30 18:31:58 19° 66° (ENE) 18:34:27 435.3500 MHz FM
SO-50 26 Jul 18:39:00 18:39:38 10° 7° (N) 18:40:15 436.795 FM
JAS-2 26 Jul 18:44:41 18:52:32 76° 257° (WSW) 18:59:53 435.800 - 435.900 CW/SSB, 435.910 FM
UOSAT-12 26 Jul 19:10:52 19:12:35 12° 347° (NNW) 19:14:19 437.025 FM, 437.400 FM
OPAL 26 Jul 19:16:28 19:19:28 16° 306° (NW) 19:22:29 ?
HO-68 26 Jul 19:21:16 19:26:22 22° 50° (NE) 19:31:28 435.675 MHz FM
Hamsat 26 Jul 19:28:09 19:31:00 18° 269° (W) 19:33:53 145.90 MHz
STRAND 1 26 Jul 19:55:09 20:00:15 63° 102° (ESE) 20:05:17 ?
UKube-1 26 Jul 19:56:54 19:58:42 12° 56° (ENE) 20:00:30 145.840 MHz, 145.915 MHz
SO-67 26 Jul 20:01:40 20:04:50 33° 263° (W) 20:08:02 435.3500 MHz FM
SO-50 26 Jul 20:18:23 20:21:59 21° 31° (NNE) 20:25:37 436.795 FM
JAS-2 26 Jul 20:33:49 20:38:33 17° 275° (W) 20:43:08 435.800 - 435.900 CW/SSB, 435.910 FM
RS-15 26 Jul 20:39:05 20:49:10 39° 23° (NNE) 20:59:25 29.354 - 29.394 USB, Beacon 29.352 USB
Oscar 11 26 Jul 20:43:37 20:46:23 17° 61° (ENE) 20:49:08 145.825 FM, Beacon 2401.500 USB
UOSAT-12 26 Jul 20:53:19 20:54:53 11° 12° (NNE) 20:56:27 437.025 FM, 437.400 FM
HO-68 26 Jul 21:05:56 21:13:07 84° 71° (ENE) 21:20:20 435.675 MHz FM
UKube-1 26 Jul 21:29:51 21:34:14 89° 75° (ENE) 21:38:39 145.840 MHz, 145.915 MHz
STRAND 1 26 Jul 21:35:12 21:39:01 22° 301° (WNW) 21:42:48 ?
MaSat-1 26 Jul 21:44:40 21:48:07 26° 105° (ESE) 21:52:01 437.345 MHz
SO-50 26 Jul 21:58:27 22:03:12 87° 52° (NE) 22:08:02 436.795 FM
Oscar 11 26 Jul 22:17:53 22:22:08 61° 259° (W) 22:26:25 145.825 FM, Beacon 2401.500 USB
FUNcube-1 26 Jul 22:32:35 22:36:55 75° 75° (ENE) 22:41:10 145.950 - 145.970 MHz USB
UOSAT-12 26 Jul 22:32:37 22:36:39 27° 36° (NE) 22:40:39 437.025 FM, 437.400 FM
RS-15 26 Jul 22:52:08 23:03:12 85° 52° (NE) 23:14:38 29.354 - 29.394 USB, Beacon 29.352 USB
HO-68 26 Jul 22:56:26 23:01:40 21° 271° (W) 23:06:55 435.675 MHz FM
UKube-1 26 Jul 23:10:10 23:11:05 11° 273° (W) 23:12:01 145.840 MHz, 145.915 MHz
MaSat-1 26 Jul 23:21:09 23:25:13 42° 309° (NW) 23:29:52 437.345 MHz
SO-50 26 Jul 23:40:31 23:43:09 15° 250° (WSW) 23:45:48 436.795 FM
FUNcube-1 27 Jul 00:12:05 00:13:50 12° 272° (W) 00:15:35 145.950 - 145.970 MHz USB
UOSAT-12 27 Jul 00:12:30 00:17:13 65° 236° (SW) 00:21:51 437.025 FM, 437.400 FM
Lituanica SAT-1 27 Jul 00:25:48 00:27:42 81° 154° (SSE) 00:29:37 437.275 MHz beacon
Sapphire 27 Jul 00:29:12 00:31:36 13° 103° (ESE) 00:33:59 437.095 MHz 1200 baud AX-25 AFSK
ISS 27 Jul 00:39:03 00:41:39 21° 139° (SE) 00:44:15 145.800 FM
PCSat 27 Jul 01:00:25 01:04:49 26° 109° (ESE) 01:09:14 145.825 MHz
MaSat-1 27 Jul 01:02:29 01:04:01 11° 332° (NNW) 01:05:36 437.345 MHz
RS-15 27 Jul 01:05:20 01:14:23 31° 255° (WSW) 01:23:44 29.354 - 29.394 USB, Beacon 29.352 USB
Oscar 16 27 Jul 01:23:42 01:26:05 13° 87° (E) 01:28:28 437.025 USB, Beacon 2401.1428
JAS-1B 27 Jul 01:42:43 01:46:02 12° 73° (ENE) 01:49:13 435.800 - 435.900 CW/SSB
Lituanica SAT-1 27 Jul 01:58:19 01:59:58 24° 354° (N) 02:01:38 437.275 MHz beacon
AO-27 27 Jul 01:58:47 02:00:55 12° 86° (E) 02:03:02 436.795 MHz FM
Uribyol 2 27 Jul 01:59:57 02:02:22 13° 87° (E) 02:04:47 436.500 FM
Sapphire 27 Jul 02:08:43 02:14:07 80° 121° (ESE) 02:19:34 437.095 MHz 1200 baud AX-25 AFSK
ISS 27 Jul 02:14:42 02:18:04 82° 337° (NNW) 02:21:26 145.800 FM
Oscar 19 27 Jul 02:33:02 02:38:04 50° 100° (E) 02:43:06 437.125 CW, 437.150 USB
PCSat 27 Jul 02:42:33 02:47:53 58° 309° (NW) 02:53:16 145.825 MHz
Oscar 16 27 Jul 03:00:59 03:06:11 90° 105° (ESE) 03:11:22 437.025 USB, Beacon 2401.1428
AO-Echo 27 Jul 03:06:36 03:11:37 51° 99° (E) 03:16:27 ?
OPAL 27 Jul 03:16:35 03:21:03 35° 63° (ENE) 03:25:32 ?
ITAMSAT 1 27 Jul 03:17:22 03:22:31 59° 101° (ESE) 03:27:36 435.822 SSB
TMSAT-1 27 Jul 03:23:57 03:28:09 23° 92° (E) 03:32:19 436.925 FM
JAS-1B 27 Jul 03:29:35 03:39:02 55° 97° (E) 03:47:14 435.800 - 435.900 CW/SSB
Lituanica SAT-1 27 Jul 03:30:35 03:32:22 32° 13° (NNE) 03:34:08 437.275 MHz beacon
AO-27 27 Jul 03:36:00 03:41:14 85° 105° (ESE) 03:46:25 436.795 MHz FM
Uribyol 2 27 Jul 03:37:23 03:42:35 90° 284° (WNW) 03:47:45 436.500 FM
Gurwin Techsat 1B 27 Jul 03:46:22 03:51:31 48° 99° (E) 03:56:37 435.225 FM
AO-7 27 Jul 03:48:08 03:52:01 14° 84° (E) 03:55:52 29.400 - 29.500 MHz
ISS 27 Jul 03:51:50 03:55:03 41° 357° (N) 03:58:16 145.800 FM
Sapphire 27 Jul 03:53:46 03:58:10 25° 323° (NW) 04:02:36 437.095 MHz 1200 baud AX-25 AFSK
Oscar 19 27 Jul 04:12:56 04:17:09 26° 298° (WNW) 04:21:22 437.125 CW, 437.150 USB
PCSat 27 Jul 04:29:00 04:32:29 17° 332° (NNW) 04:35:59 145.825 MHz
Oscar 16 27 Jul 04:41:50 04:44:50 16° 304° (NW) 04:47:51 437.025 USB, Beacon 2401.1428
AO-Echo 27 Jul 04:45:56 04:50:05 25° 299° (WNW) 04:54:08 ?
OPAL 27 Jul 04:55:28 04:59:56 34° 261° (W) 05:04:27 ?
ITAMSAT 1 27 Jul 04:57:38 05:01:38 23° 300° (WNW) 05:05:36 435.822 SSB
Uosat F 27 Jul 05:01:47 05:06:30 39° 98° (E) 05:11:11 435.120 FM
Lituanica SAT-1 27 Jul 05:02:40 05:04:25 31° 211° (SSW) 05:06:10 437.275 MHz beacon
TMSAT-1 27 Jul 05:03:14 05:08:24 55° 290° (WNW) 05:13:33 436.925 FM
AO-27 27 Jul 05:16:52 05:20:05 17° 304° (NW) 05:23:17 436.795 MHz FM
Uribyol 2 27 Jul 05:18:22 05:21:21 16° 305° (NW) 05:24:21 436.500 FM
JAS-1B 27 Jul 05:20:16 05:29:19 46° 300° (WNW) 05:37:23 435.800 - 435.900 CW/SSB
Gurwin Techsat 1B 27 Jul 05:26:47 05:31:16 28° 298° (WNW) 05:35:43 435.225 FM
ISS 27 Jul 05:28:46 05:32:07 61° 18° (NNE) 05:35:28 145.800 FM
